Simultaneous Nadir Overpasses (SNOs) Predictions

Prediction of SNOs near equator between AQUA and NPP Satellite Orbit:

Table of predicted SNOs near equator for the next 14.0 days since TLE Epoch: 4/23/2022
Index Date (AQUA) Time (AQUA) AQUA Lat,Lon Date (NPP) Time (NPP) NPP Lat,Lon Distance(km) Time Diff (sec)
1 04/25/2022 13:10:26 29.99, 2.04 04/25/2022 13:00:26 30.26, 1.09 96.77 600
2 04/25/2022 13:52:16 -2.73, 175.96 04/25/2022 13:43:14 -2.53, 175.11 96.64 542
3 04/28/2022 05:19:37 4.75, 123.84 04/28/2022 05:10:01 4.59, 123.10 83.94 576
4 04/30/2022 20:51:23 -23.26, 68.04 04/30/2022 20:41:23 -23.23, 67.20 86.20 600
5 05/03/2022 13:02:17 -4.26,-171.74 05/03/2022 12:52:50 -4.09,-172.53 90.11 567
6 05/06/2022 04:29:35 6.17, 136.17 05/06/2022 04:19:36 6.05, 135.48 78.13 599
